Deer Park, WA
on Sunday, February 24, 2013

Sunday
Previous Day Next Day
Daily Summary
 ActualAverageRecord
Temperature
Mean Temperature °F 32°F  
Max Temperature 38°F 42°F 52°F (2005)
Min Temperature 13°F 22°F 2°F (2011)
Degree Days
Heating Degree Days 39 33  
Month to date heating degree days 841 839  
Since 1 July heating degree days 4949 5235  
Cooling Degree Days 0 0  
Month to date cooling degree days 0 0  
Year to date cooling degree days 0 0  
Moisture
Dew Point 20°F   
Average Humidity 83    
Maximum Humidity 96    
Minimum Humidity 70    
Precipitation
Precipitation 0.00 in 0.05 in 1.04 in (1999)
Month to date precipitation 0.53 1.38  
Year to date precipitation 2.03 4.01  
Wind
Wind Speed 3 mph   
Max Wind Speed 10 mph   
Max Gust Speed 12 mph   
Visibility 6 miles   
Events Fog   

Key: T is trace of precipitation, MM is missing value
Source: NWS Daily Summary
Time(PST)TemperatureDew PointHumidity Pressure Visibility Wind DirectionWind SpeedGust SpeedPrecipitationEvents Conditions
12:06 AM 15.8°F 14.0°F 93% 30.18 in 2.0 miles Calm Calm - N/A   Scattered Clouds
12:09 AM 15.8°F 12.2°F 86% 30.18 in 1.0 miles Calm Calm - N/A   Mist
12:16 AM 17.6°F 15.8°F 93% 30.19 in 0.8 miles Calm Calm - N/A   Mist
12:18 AM 17.6°F 15.8°F 93% 30.19 in 1.8 miles Calm Calm - N/A   Partly Cloudy
12:25 AM 17.6°F 17.6°F 100% 30.19 in 10.0 miles Calm Calm - N/A   Partly Cloudy
12:35 AM 15.8°F 14.0°F 93% 30.19 in 1.8 miles Calm Calm - N/A   Partly Cloudy
12:44 AM 15.8°F 12.2°F 86% 30.20 in 3.0 miles Calm Calm - N/A   Partly Cloudy
12:48 AM 15.8°F 14.0°F 93% 30.20 in 1.5 miles Calm Calm - N/A   Scattered Clouds
12:53 AM 17.1°F 16.0°F 96% 30.28 in 0.8 miles Calm Calm - N/A   Mist
1:53 AM 15.1°F 14.0°F 95% 30.30 in 0.2 miles Calm Calm - N/A Fog Light Freezing Fog
2:37 AM 17.6°F 17.6°F 100% 30.22 in 2.0 miles ESE 3.5 mph - N/A   Mostly Cloudy
2:40 AM 15.8°F 15.8°F 100% 30.22 in 3.0 miles ESE 3.5 mph - N/A   Scattered Clouds
2:53 AM 17.1°F 14.0°F 88% 30.29 in 10.0 miles ESE 3.5 mph - N/A   Partly Cloudy
3:21 AM 17.6°F 15.8°F 93% 30.23 in 1.5 miles Calm Calm - N/A   Clear
3:28 AM 15.8°F 14.0°F 93% 30.22 in 0.8 miles Calm Calm - N/A   Mist
3:53 AM 14.0°F 12.9°F 95% 30.31 in 0.5 miles Calm Calm - N/A Fog Light Freezing Fog
4:53 AM 15.1°F 12.9°F 91% 30.32 in 0.2 miles Calm Calm - N/A Fog Light Freezing Fog
5:26 AM 15.8°F 14.0°F 93% 30.24 in 0.5 miles Calm Calm - N/A Fog Light Freezing Fog
5:50 AM 15.8°F 12.2°F 86% 30.25 in 1.5 miles NW 4.6 mph - N/A   Overcast
5:53 AM 15.1°F 12.9°F 91% 30.34 in 2.5 miles NW 4.6 mph - N/A   Overcast
6:00 AM 17.6°F 14.0°F 86% 30.25 in 10.0 miles Calm Calm - N/A   Overcast
6:53 AM 19.9°F 17.1°F 89% 30.35 in 10.0 miles Calm Calm - N/A   Overcast
7:53 AM 24.1°F 21.9°F 91% 30.36 in 10.0 miles Calm Calm - N/A   Overcast
8:53 AM 27.0°F 25.0°F 92% 30.36 in 10.0 miles SSE 6.9 mph - N/A   Overcast
9:53 AM 28.0°F 26.1°F 92% 30.38 in 10.0 miles South 6.9 mph - N/A   Overcast
10:53 AM 30.0°F 28.0°F 92% 30.38 in 10.0 miles SW 3.5 mph - N/A   Overcast
11:04 AM 30.2°F 26.6°F 86% 30.29 in 10.0 miles SSW 4.6 mph - N/A   Overcast
11:53 AM 32.0°F 28.0°F 85% 30.38 in 7.0 miles Calm Calm - N/A   Overcast
12:53 PM 34.0°F 28.0°F 79% 30.34 in 10.0 miles SSW 6.9 mph - N/A   Overcast
1:53 PM 36.0°F 28.9°F 76% 30.32 in 10.0 miles Calm Calm - N/A   Overcast
2:53 PM 37.9°F 28.0°F 68% 30.30 in 10.0 miles Calm Calm - N/A   Overcast
3:53 PM 36.0°F 26.1°F 67% 30.30 in 10.0 miles South 6.9 mph - N/A   Overcast
5:53 PM 35.1°F 27.0°F 72% 30.26 in 10.0 miles SE 3.5 mph - N/A   Overcast
6:53 PM 35.1°F 27.0°F 72% 30.24 in 10.0 miles ESE 4.6 mph - N/A   Overcast
7:53 PM 34.0°F 28.0°F 79% 30.22 in 10.0 miles SSE 5.8 mph - N/A   Overcast
8:53 PM 34.0°F 27.0°F 75% 30.18 in 10.0 miles SSE 5.8 mph - N/A   Overcast
9:53 PM 34.0°F 27.0°F 75% 30.17 in 10.0 miles SE 3.5 mph - N/A   Overcast
10:53 PM 32.0°F 28.0°F 85% 30.14 in 10.0 miles Calm Calm - N/A   Overcast
11:53 PM 30.9°F 28.0°F 89% 30.10 in 10.0 miles Calm Calm - N/A   Overcast
Moon Phase
Feb. 24 Feb. 25 Mar. 04 Mar. 11 Mar. 19
Sunrise:06:39 AM (PST) Moon Rise:04:43 PM (PST)2/24
Sunset:05:27 PM (PST) Moon Set:05:40 AM (PST)2/24

Copyright © 2014 The Weather Underground, Inc.